[[{"header":{"parameterUnit":"m.s-1","parameterCategory":1,"la1":30.2991,"la2":30.254,"lo1":-89.0895,"lo2":-89.0444,"dy":0.0017,"dx":0.0017,"nx":28,"ny":28,"refTime":"2023-08-15T21:00:00:Z","depth":0,"parameterNumber":2,"parameterNumberName":"U-component_of_WINDS"},"data":[0,0,0,0,0,0,0,0,0,0,0,0,0,0,0,0,0,0,0,0,0,0,0,0,0,0,0,0,0,0,0,0,0,0,0,0,0,0,0,0,0,0,0,0,0,0,0,0,0,0,0,0,0,0,0,0,0,0,1.1228,1.1229,0,1.1254,1.1254,1.1254,1.1224,1.1223,1.1222,1.1221,1.1246,1.1248,1.125,0,0,0,0,0,0,0,0,0,0,0,0,0,1.1153,1.1155,1.1228,1.1229,1.1229,1.1253,1.1254,1.1254,1.1224,1.1223,1.1222,1.122,1.1246,1.1248,1.125,0,0,0,0,0,0,0,0,0,0,0,0,0,1.1183,1.1155,1.1228,1.1217,1.1216,1.1253,1.1254,1.1254,1.1225,1.1223,1.1221,1.122,1.1245,1.1248,1.125,1.1299,0,0,1.1258,1.1259,0,0,0,0,0,0,0,0,1.1181,1.1185,1.1218,1.1218,1.1217,1.1234,1.1237,1.1269,1.1225,1.1222,1.1221,1.1219,1.1244,1.1246,1.1255,1.1301,1.1302,1.1258,1.126,1.1261,1.1262,0,0,0,0,0,0,0,1.1179,1.1184,1.1238,1.1219,1.1218,1.121,1.1213,1.1243,1.1242,1.1222,1.122,1.1223,1.1243,1.1252,1.1255,1.1302,1.1258,1.1261,1.1262,1.1263,1.1387,1.1389,0,0,0,0,0,0,1.1178,1.1183,1.1237,1.1239,1.1195,1.1213,1.1216,1.123,1.1241,1.1241,1.1224,1.1222,1.1249,1.1252,1.1256,1.1312,1.1261,1.1263,1.1265,1.1386,1.1388,1.139,0,0,0,0,0,0,1.1177,1.1184,1.1236,1.121,1.1216,1.1216,1.1233,1.1232,1.1241,1.1243,1.1243,1.1234,1.1247,1.1252,1.1288,1.1313,1.1265,1.1267,1.1383,1.1386,1.1389,1.1427,0,0,0,0,0,0,1.1175,1.1183,1.1202,1.1211,1.1218,1.1269,1.1234,1.1233,1.1245,1.1242,1.1252,1.1252,1.1247,1.1285,1.1291,1.1315,1.1269,1.1381,1.1385,1.1388,1.1423,1.143,1.1436,0,0,0,0,0,1.1172,1.1213,1.1204,1.121,1.1242,1.1271,1.1275,1.1267,1.1248,1.1266,1.1267,1.1252,1.1309,1.1289,1.1295,1.1321,1.138,1.1384,1.1388,1.142,1.1429,1.1436,0,0,0,0,0,0,1.1207,1.1214,1.1204,1.1248,1.1259,1.1266,1.1289,1.1277,1.1294,1.129,1.128,1.1282,1.132,1.1324,1.1301,1.1368,1.1341,1.1347,1.1364,1.1372,1.1378,1.1376,1.1271,0,0,0,0,0,1.122,1.1243,1.1247,1.1286,1.1292,1.129,1.1302,1.1295,1.1306,1.1311,1.1315,1.1326,1.1346,1.1359,1.1378,1.1424,1.1425,1.1445,1.1452,1.1457,1.1461,1.1484,1.1492,1.1403,1.1403,1.1402,0,0,1.1247,1.1253,1.1269,1.1293,1.1301,1.1324,1.1294,1.132,1.1337,1.1315,1.1348,1.1352,1.1363,1.1404,1.1422,1.1408,1.1486,1.1462,1.1466,1.1468,1.1489,1.1497,1.1505,1.1405,1.1405,1.1404,0,0,1.1307,1.1315,1.1347,1.1355,1.1367,1.1365,1.1373,1.1381,1.1382,1.1416,1.1399,1.1418,1.1454,1.1462,1.1471,1.1533,1.1519,1.154,1.1573,1.1595,1.1602,1.1609,1.1629,1.1637,1.1544,1.1544,1.1544,0,1.1339,1.1374,1.1365,1.1392,1.1403,1.1383,1.1415,1.1423,1.1441,1.1448,1.1433,1.1476,1.1482,1.1523,1.1538,1.1547,1.1554,1.1538,1.1602,1.1608,1.1614,1.1633,1.1641,1.1547,1.1546,1.1546,1.1546,0,1.1411,1.1435,1.146,1.1476,1.149,1.1519,1.1514,1.1529,1.1521,1.152,1.1553,1.1561,1.1579,1.1589,1.1582,1.1629,1.162,1.1604,1.1576,1.1625,1.1643,1.165,1.155,1.1549,1.1549,1.1548,0,0,1.1495,1.1505,1.1514,1.152,1.1531,1.1549,1.1577,1.1595,1.1607,1.162,1.1642,1.1672,1.1656,1.1666,1.166,1.1679,1.1725,1.166,1.166,1.1671,1.1776,1.1786,1.1795,1.1716,1.1718,1.1719,1.1774,0,1.1553,1.1601,1.1594,1.164,1.1661,1.1642,1.1666,1.1674,1.1674,1.1692,1.1692,1.1712,1.1691,1.1697,1.1716,1.1716,1.1746,1.1712,1.1736,1.1737,1.1732,1.1805,1.1817,1.1868,1.1781,1.1782,1.1783,0,1.1629,1.1643,1.1691,1.1696,1.1705,1.1727,1.1742,1.1759,1.1768,1.1767,1.1777,1.1767,1.1793,1.1766,1.1802,1.1779,1.1788,1.179,1.1792,1.1792,1.1762,1.1806,1.1885,1.1892,1.1794,1.1793,1.1793,0,1.1682,1.1713,1.1745,1.1752,1.176,1.1775,1.1779,1.1787,1.1798,1.1811,1.1817,1.1834,1.1843,1.1856,1.1849,1.183,1.1885,1.1858,1.1884,1.1884,1.1895,1.1894,1.1975,1.1904,1.1904,1.1904,1.1904,0,1.1748,1.1777,1.1769,1.1789,1.1821,1.1812,1.1844,1.1845,1.1852,1.1871,1.1856,1.1874,1.1865,1.1883,1.1878,1.1907,1.1912,1.191,1.1909,1.1911,1.1911,1.1916,1.1912,1.1906,1.1905,1.1905,1.1905,0,1.1812,1.1809,1.1842,1.1846,1.1848,1.1871,1.1875,1.1893,1.1891,1.1915,1.192,1.1918,1.1937,1.1932,1.1954,1.195,1.1987,1.1981,1.1984,1.1982,1.2007,1.2004,1.2092,1.2103,1.2026,1.2027,1.2028,0,1.1854,1.1876,1.1882,1.1894,1.1899,1.1918,1.1928,1.192,1.1931,1.1943,1.1959,1.1977,1.199,1.2022,1.2022,1.2038,1.2032,1.2062,1.2034,1.2035,1.203,1.2028,1.203,1.2067,1.2068,1.2068,1.2069,0,1.1927,1.1924,1.194,1.1954,1.1967,1.1979,1.1989,1.1999,1.1991,1.2005,1.2024,1.2035,1.2056,1.2073,1.2088,1.2091,1.2078,1.2078,1.2084,1.2086,1.2086,1.2085,1.1997,1.2075,1.2075,1.2074,1.2074,1.2074,1.198,1.1998,1.2005,1.2023,1.2029,1.2038,1.2055,1.2055,1.2071,1.2087,1.2081,1.2103,1.211,1.2128,1.2133,1.2149,1.2138,1.2148,1.215,1.2152,1.2154,1.2084,1.2152,1.2152,1.2152,1.2152,1.2152,0,1.2051,1.2054,1.2071,1.2085,1.2098,1.2085,1.2095,1.2107,1.2126,1.2134,1.2147,1.2169,1.2185,1.2186,1.2201,1.2214,1.2209,1.2219,1.2217,1.2217,1.2165,1.2157,1.2223,1.2223,1.2223,1.2223,1.2223,1.2223,1.209,1.2118,1.2116,1.2147,1.215,1.2171,1.2177,1.2185,1.2191,1.2216,1.2229,1.2229,1.2234,1.2249,1.2264,1.2263,1.2269,1.2281,1.2278,1.2229,1.2221,1.2215,1.2207,1.2283,1.2283,1.2329,1.233,1.233]},{"header":{"parameterUnit":"m.s-1","parameterCategory":1,"la1":30.2991,"la2":30.254,"lo1":-89.0895,"lo2":-89.0444,"dy":0.0017,"dx":0.0017,"nx":28,"ny":28,"refTime":"2023-08-15T21:00:00:Z","depth":0,"parameterNumber":3,"parameterNumberName":"V-component_of_WINDS"},"data":[0,0,0,0,0,0,0,0,0,0,0,0,0,0,0,0,0,0,0,0,0,0,0,0,0,0,0,0,0,0,0,0,0,0,0,0,0,0,0,0,0,0,0,0,0,0,0,0,0,0,0,0,0,0,0,0,0,0,2.7949,2.7948,0,2.7914,2.7913,2.7913,2.7805,2.7803,2.78,2.7798,2.7764,2.7765,2.7766,0,0,0,0,0,0,0,0,0,0,0,0,0,2.7923,2.7924,2.7949,2.7948,2.7948,2.7914,2.7913,2.7913,2.7806,2.7803,2.78,2.7797,2.7763,2.7765,2.7766,0,0,0,0,0,0,0,0,0,0,0,0,0,2.7916,2.7924,2.7949,2.789,2.7885,2.7914,2.7913,2.7913,2.7806,2.7803,2.7799,2.7796,2.7763,2.7765,2.7766,2.785,0,0,2.7772,2.7773,0,0,0,0,0,0,0,0,2.7916,2.7917,2.7899,2.7894,2.7888,2.786,2.7891,2.7892,2.7807,2.7836,2.7798,2.7794,2.7799,2.7797,2.7799,2.7848,2.7847,2.7773,2.7774,2.7775,2.7775,0,0,0,0,0,0,0,2.7917,2.7918,2.7935,2.7899,2.7892,2.7866,2.7861,2.7891,2.7838,2.7833,2.7825,2.7823,2.7795,2.7797,2.7797,2.7846,2.7772,2.7774,2.7775,2.7776,2.796,2.7963,0,0,0,0,0,0,2.7926,2.7919,2.7936,2.7934,2.7894,2.7869,2.7864,2.7873,2.7837,2.7828,2.7826,2.7818,2.7796,2.7795,2.7795,2.7889,2.7775,2.7776,2.7777,2.7956,2.7961,2.7965,0,0,0,0,0,0,2.7926,2.7928,2.7937,2.7924,2.7923,2.7873,2.7885,2.7874,2.7876,2.7831,2.7821,2.7838,2.7793,2.7793,2.7836,2.7886,2.7777,2.7779,2.7952,2.7957,2.7963,2.8078,0,0,0,0,0,0,2.7925,2.7929,2.796,2.7926,2.7924,2.7979,2.7888,2.7876,2.7879,2.7869,2.784,2.7832,2.779,2.7834,2.7838,2.7887,2.778,2.7947,2.7954,2.7961,2.8069,2.8087,2.8101,0,0,0,0,0,2.7925,2.7995,2.7962,2.7965,2.7962,2.7982,2.7982,2.7932,2.7884,2.7915,2.7886,2.7833,2.788,2.7839,2.7843,2.7893,2.7944,2.7952,2.796,2.8062,2.8083,2.8101,0,0,0,0,0,0,2.8038,2.7989,2.7953,2.8014,2.8003,2.7964,2.8001,2.7956,2.7959,2.7949,2.7887,2.7881,2.7933,2.7918,2.7873,2.7971,2.7903,2.7913,2.7979,2.7999,2.8015,2.8017,2.7782,0,0,0,0,0,2.8069,2.8089,2.8046,2.8104,2.81,2.8052,2.8059,2.8021,2.8008,2.8003,2.7977,2.7966,2.7978,2.7988,2.7997,2.8067,2.8058,2.8103,2.8119,2.8132,2.8141,2.8175,2.8194,2.7992,2.7992,2.7992,0,0,2.8136,2.8112,2.8128,2.8126,2.8113,2.8135,2.8049,2.8076,2.8092,2.8007,2.8046,2.8027,2.8011,2.8068,2.8091,2.8056,2.8195,2.8143,2.8154,2.8155,2.8186,2.8205,2.8222,2.7998,2.7997,2.7996,0,0,2.8267,2.8252,2.8297,2.8285,2.8266,2.8234,2.8245,2.8213,2.8196,2.8235,2.8171,2.8189,2.8211,2.8202,2.82,2.8326,2.8277,2.8331,2.8415,2.8449,2.8464,2.8478,2.8522,2.8538,2.834,2.834,2.834,0,2.8352,2.8382,2.8326,2.8357,2.8357,2.8281,2.8326,2.8317,2.8303,2.8305,2.8266,2.8291,2.8275,2.8328,2.8358,2.836,2.837,2.8333,2.8467,2.848,2.8492,2.8533,2.855,2.8347,2.8346,2.8345,2.8345,0,2.8486,2.8508,2.8547,2.8533,2.8538,2.8576,2.8526,2.8538,2.8499,2.8471,2.851,2.8488,2.849,2.85,2.8463,2.8547,2.8525,2.8478,2.8408,2.8519,2.8556,2.8571,2.8356,2.8354,2.8352,2.835,0,0,2.8687,2.8642,2.8657,2.8649,2.8622,2.8638,2.8672,2.8673,2.8684,2.8676,2.8703,2.8723,2.8678,2.8676,2.8638,2.8668,2.8767,2.8615,2.8614,2.8643,2.8856,2.8892,2.8911,2.8735,2.8737,2.874,2.8857,0,2.881,2.8865,2.8816,2.888,2.8899,2.8826,2.8855,2.8842,2.8816,2.8828,2.8799,2.8814,2.8754,2.8752,2.8779,2.875,2.8809,2.8741,2.8758,2.8759,2.8763,2.8931,2.8969,2.9081,2.8872,2.8874,2.8876,0,2.8961,2.8959,2.9025,2.8992,2.8998,2.9026,2.9022,2.9035,2.9018,2.8996,2.8994,2.8946,2.8977,2.891,2.8951,2.8905,2.8909,2.8896,2.8899,2.8898,2.8824,2.8933,2.9115,2.9132,2.8899,2.8897,2.8895,0,2.91,2.9114,2.9154,2.915,2.9113,2.9134,2.912,2.9099,2.9102,2.91,2.9101,2.9102,2.9103,2.9105,2.9059,2.9014,2.9105,2.9034,2.9088,2.9089,2.911,2.9109,2.9294,2.9115,2.9115,2.9114,2.9114,0,2.9242,2.9285,2.9216,2.9241,2.9286,2.9229,2.9276,2.9254,2.9236,2.9255,2.9193,2.9213,2.9151,2.9164,2.9129,2.9167,2.9168,2.9152,2.9141,2.9157,2.9159,2.9158,2.9149,2.9119,2.9118,2.9117,2.9116,0,2.9404,2.936,2.9399,2.936,2.9351,2.9387,2.9353,2.9375,2.9344,2.9369,2.9372,2.9324,2.9336,2.9291,2.9296,2.9271,2.9328,2.9306,2.9334,2.9327,2.9382,2.9377,2.9573,2.9595,2.9403,2.9405,2.9406,0,2.9497,2.9528,2.9492,2.95,2.9488,2.9503,2.9505,2.945,2.9455,2.9437,2.9461,2.9467,2.947,2.9492,2.9458,2.9461,2.9437,2.9506,2.9437,2.9451,2.9437,2.9435,2.9438,2.952,2.9522,2.9524,2.9526,0,2.9666,2.9642,2.9648,2.9646,2.9651,2.9647,2.9639,2.9649,2.959,2.9599,2.961,2.9611,2.9615,2.9622,2.9618,2.9603,2.9555,2.9547,2.956,2.9575,2.959,2.9581,2.9371,2.9543,2.9541,2.954,2.9539,2.9538,2.9795,2.9819,2.9796,2.9805,2.9793,2.9786,2.9804,2.9775,2.9783,2.9781,2.9748,2.9765,2.9746,2.9735,2.9725,2.9738,2.9706,2.9724,2.9728,2.9733,2.9743,2.9588,2.9737,2.9736,2.9736,2.9735,2.9735,0,2.996,2.9941,2.995,2.994,2.9946,2.9899,2.9888,2.9896,2.9912,2.9898,2.9901,2.9913,2.9919,2.9885,2.9887,2.9903,2.9881,2.9906,2.9903,2.9901,2.9772,2.976,2.9923,2.9923,2.9923,2.9923,2.9923,2.9923,3.0046,3.0083,3.0056,3.0086,3.0067,3.0083,3.008,3.0074,3.0062,3.0078,3.0082,3.006,3.0038,3.0037,3.0041,3.003,3.0034,3.0066,3.0048,2.9928,2.991,2.9892,2.9881,3.0067,3.0067,3.0175,3.0176,3.0177]}]]